Weather History for Kaiser, MO

Change the Weather History Date:

Monday, April 8, 2013

  Actual Average Record
Temperature  
Mean Temperature 66 °F -  
Max Temperature 75 °F 63 °F 84 °F (2001)
Min Temperature 57 °F 42 °F 19 °F (2007)
Cooling Degree Days 1    
Growing Degree Days 16 (Base 50)    
Moisture  
Dew Point 54 °F    
Average Humidity 68    
Maximum Humidity 82    
Minimum Humidity 47    
Precipitation  
Precipitation 0.19 in - - ()
Sea Level Pressure  
Sea Level Pressure 29.79 in    
Wind  
Wind Speed 11 mph (South)    
Max Wind Speed 15 mph    
Max Gust Speed 24 mph    
Visibility 10 miles    
Events      
Averages and records for this station are not official NWS values.
T = Trace of Precipitation, MM = Missing Value Source: NWS Daily Summary

Daily Weather History Graph

Daily Weather History Graph

Search for Another Location

Airport:

Trip Planner

Search our weather history database for the weather conditions in past years. The results will help you decide how hot, cold, wet, or windy it might be!

Date:

Astronomy

Apr. 08, 2013 Rise Set
Actual Time 6:44 AM CDT 7:40 PM CDT
Civil Twilight 6:17 AM CDT 8:06 PM CDT
Nautical Twilight 5:45 AM CDT 8:38 PM CDT
Astronomical Twilight 5:12 AM CDT 9:11 PM CDT
Moon 5:33 AM CDT (4/8) 6:15 PM CDT (4/8)
Length of Visible Light 13h 49m
Length of Day
12h 55m
Waning Crescent, 3% of the Moon is Illuminated
Apr 8
Waning Crescent
Apr 10
New
Apr 18
First Quarter
Apr 25
Full
May 2
Last Quarter

Hourly Weather History & Observations

Time (CDT) Temp. Dew Point Humidity Pressure Visibility Wind Dir Wind Speed Gust Speed Precip Events Conditions
12:15 AM 57.2 °F 51.8 °F 82% 29.78 in 10.0 mi South 13.8 mph 19.6 mph N/A   Partly Cloudy
12:35 AM 59.0 °F 53.6 °F 82% 29.78 in 10.0 mi South 10.4 mph - N/A   Mostly Cloudy
12:55 AM 60.8 °F 53.6 °F 77% 29.79 in 10.0 mi South 13.8 mph 19.6 mph N/A   Overcast
1:15 AM 60.8 °F 53.6 °F 77% 29.79 in 10.0 mi South 10.4 mph 17.3 mph N/A   Overcast
1:35 AM 60.8 °F 53.6 °F 77% 29.79 in 10.0 mi SSW 12.7 mph - N/A   Overcast
1:55 AM 62.6 °F 53.6 °F 72% 29.79 in 10.0 mi SSW 12.7 mph 19.6 mph N/A   Overcast
2:15 AM 62.6 °F 53.6 °F 72% 29.77 in 10.0 mi South 15.0 mph 24.2 mph N/A   Mostly Cloudy
2:35 AM 60.8 °F 53.6 °F 77% 29.76 in 10.0 mi South 13.8 mph 19.6 mph N/A   Clear
2:55 AM 60.8 °F 53.6 °F 77% 29.76 in 10.0 mi South 12.7 mph 17.3 mph N/A   Clear
3:15 AM 60.8 °F 53.6 °F 77% 29.76 in 10.0 mi South 8.1 mph - N/A   Partly Cloudy
3:35 AM 60.8 °F 53.6 °F 77% 29.76 in 10.0 mi South 9.2 mph - N/A   Mostly Cloudy
3:55 AM 60.8 °F 53.6 °F 77% 29.76 in 10.0 mi South 6.9 mph - N/A   Overcast
4:15 AM 60.8 °F 53.6 °F 77% 29.77 in 10.0 mi South 9.2 mph - N/A   Overcast
4:35 AM 60.8 °F 53.6 °F 77% 29.75 in 10.0 mi South 10.4 mph - N/A   Mostly Cloudy
4:55 AM 60.8 °F 53.6 °F 77% 29.75 in 10.0 mi South 9.2 mph - N/A   Clear
5:15 AM 59.0 °F 53.6 °F 82% 29.75 in 10.0 mi South 10.4 mph - N/A   Clear
5:35 AM 59.0 °F 51.8 °F 77% 29.76 in 10.0 mi South 9.2 mph - N/A   Clear
5:55 AM 59.0 °F 51.8 °F 77% 29.77 in 10.0 mi South 10.4 mph - N/A   Clear
6:15 AM 59.0 °F 51.8 °F 77% 29.77 in 10.0 mi South 8.1 mph - N/A   Clear
6:35 AM 57.2 °F 51.8 °F 82% 29.77 in 10.0 mi South 8.1 mph - N/A   Clear
6:55 AM 57.2 °F 51.8 °F 82% 29.77 in 10.0 mi SSW 5.8 mph - N/A   Clear
7:15 AM 57.2 °F 51.8 °F 82% 29.78 in 10.0 mi South 9.2 mph - N/A   Clear
7:35 AM 59.0 °F 51.8 °F 77% 29.78 in 10.0 mi South 8.1 mph - N/A   Clear
7:55 AM 59.0 °F 51.8 °F 77% 29.79 in 10.0 mi South 6.9 mph - N/A   Clear
8:15 AM 60.8 °F 53.6 °F 77% 29.79 in 10.0 mi South 6.9 mph - N/A   Clear
8:35 AM 62.6 °F 53.6 °F 72% 29.79 in 10.0 mi South 8.1 mph - N/A   Clear
8:55 AM 62.6 °F 53.6 °F 72% 29.80 in 10.0 mi South 10.4 mph - N/A   Clear
9:15 AM 64.4 °F 53.6 °F 68% 29.80 in 10.0 mi South 9.2 mph - N/A   Partly Cloudy
9:35 AM 64.4 °F 53.6 °F 68% 29.80 in 10.0 mi SSW 10.4 mph - N/A   Clear
9:55 AM 66.2 °F 55.4 °F 68% 29.81 in 10.0 mi SW 10.4 mph - N/A   Partly Cloudy
10:15 AM 68.0 °F 55.4 °F 64% 29.82 in 10.0 mi SW 11.5 mph 17.3 mph N/A   Scattered Clouds
10:35 AM 68.0 °F 53.6 °F 60% 29.81 in 10.0 mi SSW 12.7 mph - N/A   Mostly Cloudy
10:55 AM 69.8 °F 55.4 °F 60% 29.81 in 10.0 mi SW 11.5 mph - N/A   Mostly Cloudy
11:15 AM 71.6 °F 55.4 °F 57% 29.81 in 10.0 mi SSW 11.5 mph - N/A   Mostly Cloudy
11:35 AM 73.4 °F 53.6 °F 50% 29.80 in 10.0 mi SSW 10.4 mph - N/A   Partly Cloudy
11:55 AM 73.4 °F 53.6 °F 50% 29.80 in 10.0 mi SSW 15.0 mph - N/A   Partly Cloudy
12:15 PM 73.4 °F 51.8 °F 47% 29.80 in 10.0 mi SSW 8.1 mph - N/A   Partly Cloudy
12:35 PM 75.2 °F 53.6 °F 47% 29.80 in 10.0 mi SSW 15.0 mph - N/A   Clear
12:55 PM 73.4 °F 53.6 °F 50% 29.80 in 10.0 mi South 13.8 mph 19.6 mph N/A   Clear
1:15 PM 73.4 °F 53.6 °F 50% 29.79 in 10.0 mi South 12.7 mph - N/A   Clear
1:55 PM 73.4 °F 53.6 °F 50% 29.79 in 10.0 mi South 12.7 mph 18.4 mph N/A   Clear
2:15 PM 73.4 °F 55.4 °F 53% 29.80 in 10.0 mi South 12.7 mph 19.6 mph N/A   Clear
2:35 PM 75.2 °F 55.4 °F 50% 29.79 in 10.0 mi SSE 11.5 mph 17.3 mph N/A   Clear
2:55 PM 75.2 °F 53.6 °F 47% 29.79 in 10.0 mi SSE 12.7 mph 21.9 mph N/A   Clear
3:15 PM - - N/A% - - North - - N/A   Unknown
3:35 PM - - N/A% - - North - - N/A   Unknown
3:55 PM - - N/A% - - North - - N/A   Unknown
4:15 PM - - N/A% - - North - - N/A   Unknown
4:35 PM - - N/A% - - North - - N/A   Unknown
4:55 PM - - N/A% - - North - - N/A   Unknown
5:15 PM - - N/A% - - North - - N/A   Unknown
5:35 PM - - N/A% - - North - - N/A   Unknown
5:55 PM - - N/A% - - North - - N/A   Unknown
6:15 PM - - N/A% - - North - - N/A   Unknown
6:35 PM - - N/A% - - North - - N/A   Unknown
6:55 PM - - N/A% - - North - - N/A   Unknown
7:15 PM - - N/A% - - North - - N/A   Unknown
7:35 PM - - N/A% - - North - - N/A   Unknown
7:55 PM - - N/A% - - North - - N/A   Unknown
8:15 PM - - N/A% - - North - - N/A   Unknown
8:35 PM - - N/A% - - North - - N/A   Unknown
8:55 PM - - N/A% - - North - - N/A   Unknown
9:15 PM 69.8 °F 55.4 °F 60% 29.82 in - South 9.2 mph - N/A   Unknown
9:35 PM 69.8 °F 55.4 °F 60% 29.84 in 10.0 mi South 6.9 mph - N/A   Overcast
9:55 PM 69.8 °F 55.4 °F 60% 29.84 in 10.0 mi SSE 5.8 mph - N/A   Overcast
10:15 PM 68.0 °F 55.4 °F 64% 29.85 in 10.0 mi SSE 4.6 mph - N/A   Overcast
10:35 PM 68.0 °F 55.4 °F 64% 29.84 in 10.0 mi SSE 5.8 mph - N/A   Overcast
10:55 PM 66.2 °F 55.4 °F 68% 29.84 in 10.0 mi SE 8.1 mph - N/A   Mostly Cloudy
11:15 PM - - N/A% 29.83 in - SE 5.8 mph - N/A   Unknown
11:35 PM 66.2 °F 55.4 °F 68% 29.84 in 10.0 mi ESE 6.9 mph - N/A   Mostly Cloudy
11:55 PM 66.2 °F 55.4 °F 68% 29.83 in 10.0 mi SE 8.1 mph - N/A   Mostly Cloudy